DW6494 Weather Reports


Display with metric or nautical units.
time (UTC)temp
F
wind
direction
speed
MPH
gust
MPH
rain 1hr
in
rain 24hr
in
rain mn
in
humidity
%
barometer
mb
20260831084029 59 21 4.0 4.0 0.00 0.00 0.00 72 1022.0
20260831083529 59 37 3.0 4.0 0.00 0.00 0.00 73 1022.0
20260831083029 60 35 3.0 4.0 0.00 0.00 0.00 72 1022.0
20260831082529 60 45 3.0 4.0 0.00 0.00 0.00 71 1022.0
20260831082029 60 360 0.0 0.0 0.00 0.00 0.00 70 1022.0
20260831081529 60 55 3.0 4.0 0.00 0.00 0.00 70 1022.0
20260831081030 60 360 0.0 0.0 0.00 0.00 0.00 68 1022.0
20260831080529 60 63 0.0 1.0 0.00 0.00 0.00 68 1022.0
20260831080029 60 360 0.0 0.0 0.00 0.00 0.00 70 1022.0
20260831075529 60 62 2.0 4.0 0.00 0.00 0.00 70 1022.0
20260831075029 60 48 2.0 3.0 0.00 0.00 0.00 70 1022.0
20260831074529 60 360 0.0 0.0 0.00 0.00 0.00 69 1022.0
20260831074033 61 360 0.0 0.0 0.00 0.00 0.00 68 1022.0
20260831073529 61 360 0.0 0.0 0.00 0.00 0.00 69 1022.0
20260831073029 61 360 0.0 0.0 0.00 0.00 0.00 66 1022.0
20260831072529 61 360 0.0 0.0 0.00 0.00 0.00 66 1022.0
20260831072029 62 360 0.0 0.0 0.00 0.00 0.00 66 1022.0
20260831071529 61 360 0.0 0.0 0.00 0.00 0.00 65 1022.0
20260831071029 61 360 0.0 0.0 0.00 0.00 0.00 67 1022.0
20260831070530 60 360 0.0 0.0 0.00 0.00 0.00 71 1022.0
20260831070029 60 30 1.0 2.0 0.00 0.00 0.00 72 1022.0
20260831065529 60 52 1.0 3.0 0.00 0.00 0.00 71 1022.0
20260831065029 61 43 1.0 4.0 0.00 0.00 0.00 71 1022.0
20260831064529 61 28 1.0 3.0 0.00 0.00 0.00 71 1022.0
20260831064029 61 360 0.0 0.0 0.00 0.00 0.00 70 1022.0
20260831063530 61 17 1.0 3.0 0.00 0.00 0.00 69 1022.0
20260831063030 61 349 0.0 0.0 0.00 0.00 0.00 70 1022.0
20260831062536 61 34 3.0 9.0 0.00 0.00 0.00 70 1022.0
20260831062029 62 360 0.0 0.0 0.00 0.00 0.00 70 1022.0
20260831061529 62 360 0.0 0.0 0.00 0.00 0.00 70 1022.0
20260831061030 62 360 0.0 0.0 0.00 0.00 0.00 69 1022.0
20260831060529 62 360 0.0 0.0 0.00 0.00 0.00 67 1022.0
20260831060029 62 360 0.0 0.0 0.00 0.00 0.00 69 1022.0
20260831055529 62 360 0.0 0.0 0.00 0.00 0.00 69 1022.0
20260831055029 62 360 0.0 0.0 0.00 0.00 0.00 69 1022.0
20260831054528 62 360 0.0 0.0 0.00 0.00 0.00 68 1022.0
20260831054029 62 360 0.0 0.0 0.00 0.00 0.00 66 1022.0
20260831053529 62 360 0.0 0.0 0.00 0.00 0.00 64 1022.0
20260831053029 63 360 0.0 0.0 0.00 0.00 0.00 64 1022.0
20260831052529 63 360 0.0 0.0 0.00 0.00 0.00 65 1022.0
20260831052029 63 360 0.0 0.0 0.00 0.00 0.00 64 1022.0
20260831051530 63 360 0.0 0.0 0.00 0.00 0.00 65 1022.0
20260831051029 64 360 0.0 0.0 0.00 0.00 0.00 64 1022.0
20260831050530 64 348 6.0 7.0 0.00 0.00 0.00 63 1022.0
20260831050030 64 360 0.0 0.0 0.00 0.00 0.00 62 1022.0
20260831045529 64 360 6.0 7.0 0.00 0.00 0.00 62 1022.0
20260831045029 64 360 0.0 0.0 0.00 0.00 0.00 62 1022.0
20260831044532 64 360 0.0 0.0 0.00 0.00 0.00 64 1022.0
20260831044029 64 330 4.0 5.0 0.00 0.00 0.00 63 1022.0
20260831043529 64 322 0.0 0.0 0.00 0.00 0.00 62 1022.0
20260831043029 64 353 4.0 5.0 0.00 0.00 0.00 62 1022.0
20260831042529 64 343 4.0 5.0 0.00 0.00 0.00 61 1022.0
20260831042029 64 360 0.0 0.0 0.00 0.00 0.00 61 1022.0
20260831041531 65 360 0.0 0.0 0.00 0.00 0.00 61 1022.0
20260831041030 65 360 0.0 0.0 0.00 0.00 0.00 61 1022.0
20260831040529 65 349 0.0 0.0 0.00 0.00 0.00 61 1022.0
20260831040029 66 356 5.0 5.0 0.00 0.00 0.00 61 1022.0
20260831035529 66 345 4.0 5.0 0.00 0.00 0.00 60 1022.0
20260831035029 66 260 2.0 3.0 0.00 0.00 0.00 61 1022.0
20260831034530 66 209 2.0 2.0 0.00 0.00 0.00 60 1021.0
20260831034029 66 348 4.0 5.0 0.00 0.00 0.00 60 1021.0
20260831033529 66 278 3.0 5.0 0.00 0.00 0.00 60 1021.0
20260831033030 67 202 2.0 3.0 0.00 0.00 0.00 61 1021.0
20260831032530 67 357 5.0 5.0 0.00 0.00 0.00 61 1022.0
20260831032029 67 355 5.0 5.0 0.00 0.00 0.00 60 1022.0
20260831031530 67 204 2.0 2.0 0.00 0.00 0.00 60 1021.0
20260831031029 67 7 4.0 4.0 0.00 0.00 0.00 60 1021.0
20260831030529 68 346 4.0 4.0 0.00 0.00 0.00 59 1021.0
20260831030029 68 344 3.0 4.0 0.00 0.00 0.00 59 1021.0
20260831025529 68 356 4.0 4.0 0.00 0.00 0.00 58 1021.0
20260831025029 68 360 4.0 4.0 0.00 0.00 0.00 58 1021.0
20260831024529 69 19 5.0 5.0 0.00 0.00 0.00 58 1021.0
20260831024029 69 26 4.0 5.0 0.00 0.00 0.00 58 1021.0
20260831023529 69 358 4.0 5.0 0.00 0.00 0.00 57 1021.0
20260831023030 69 8 4.0 5.0 0.00 0.00 0.00 59 1021.0
20260831022529 69 3 0.0 0.0 0.00 0.00 0.00 60 1021.0
20260831022029 69 33 1.0 4.0 0.00 0.00 0.00 59 1021.0
20260831021529 69 47 2.0 4.0 0.00 0.00 0.00 59 1021.0
20260831021029 69 360 0.0 0.0 0.00 0.00 0.00 60 1021.0
20260831020529 69 360 0.0 0.0 0.00 0.00 0.00 59 1021.0
20260831020029 70 360 0.0 0.0 0.00 0.00 0.00 59 1021.0
20260831015530 70 360 0.0 0.0 0.00 0.00 0.00 58 1021.0
20260831015029 71 351 0.0 0.0 0.00 0.00 0.00 57 1021.0
20260831014529 71 335 5.0 5.0 0.00 0.00 0.00 57 1021.0
20260831014029 71 154 2.0 5.0 0.00 0.00 0.00 58 1021.0
20260831013530 71 122 4.0 7.0 0.00 0.00 0.00 56 1021.0
20260831013029 71 147 9.0 13.0 0.00 0.00 0.00 54 1021.0
20260831012529 72 142 5.0 7.0 0.00 0.00 0.00 53 1021.0
20260831012030 73 86 3.0 6.0 0.00 0.00 0.00 53 1021.0
20260831011529 75 145 6.0 11.0 0.00 0.00 0.00 56 1021.0
20260831011029 77 131 2.0 4.0 0.00 0.00 0.00 47 1021.0
20260831010529 77 24 3.0 5.0 0.00 0.00 0.00 47 1021.0
20260831010029 77 166 0.0 0.0 0.00 0.00 0.00 47 1021.0
20260831005529 77 278 2.0 3.0 0.00 0.00 0.00 45 1021.0
20260831005029 77 19 4.0 6.0 0.00 0.00 0.00 45 1021.0
20260831004529 77 360 0.0 0.0 0.00 0.00 0.00 44 1021.0
20260831004029 78 120 4.0 9.0 0.00 0.00 0.00 42 1021.0
20260831003529 78 357 5.0 11.0 0.00 0.00 0.00 41 1021.0
20260831003029 78 1 4.0 8.0 0.00 0.00 0.00 42 1021.0
20260831002530 78 349 4.0 8.0 0.00 0.00 0.00 42 1021.0
20260831002029 78 342 5.0 8.0 0.00 0.00 0.00 43 1021.0
20260831001529 78 357 8.0 12.0 0.00 0.00 0.00 43 1021.0
20260831001029 78 298 5.0 11.0 0.00 0.00 0.00 44 1021.0
20260831000530 78 275 6.0 10.0 0.00 0.00 0.00 42 1021.0
20260831000030 78 5 4.0 7.0 0.00 0.00 0.00 45 1021.0
20260830235530 78 334 2.0 7.0 0.00 0.00 0.00 44 1020.0
20260830235030 77 347 9.0 13.0 0.00 0.00 0.00 45 1021.0
20260830234529 77 330 5.0 9.0 0.00 0.00 0.00 46 1021.0
20260830234029 76 348 4.0 7.0 0.00 0.00 0.00 48 1021.0
20260830233529 75 82 4.0 5.0 0.00 0.00 0.00 49 1021.0
20260830233029 75 360 0.0 0.0 0.00 0.00 0.00 53 1021.0
20260830232529 75 347 4.0 4.0 0.00 0.00 0.00 54 1021.0
20260830232030 75 161 3.0 4.0 0.00 0.00 0.00 55 1021.0
20260830231529 75 146 5.0 5.0 0.00 0.00 0.00 56 1021.0
20260830231030 75 128 3.0 4.0 0.00 0.00 0.00 55 1021.0
20260830230529 75 360 0.0 0.0 0.00 0.00 0.00 51 1021.0
20260830230029 75 360 0.0 0.0 0.00 0.00 0.00 54 1021.0
20260830225529 75 360 0.0 0.0 0.00 0.00 0.00 57 1021.0
20260830225029 75 360 0.0 0.0 0.00 0.00 0.00 56 1021.0
20260830224530 75 360 0.0 0.0 0.00 0.00 0.00 56 1021.0
20260830224029 75 118 1.0 2.0 0.00 0.00 0.00 58 1021.0
20260830223530 75 360 0.0 0.0 0.00 0.00 0.00 58 1021.0
20260830223029 76 309 0.0 0.0 0.00 0.00 0.00 54 1021.0
20260830222530 76 360 0.0 0.0 0.00 0.00 0.00 51 1021.0
20260830222029 76 360 0.0 0.0 0.00 0.00 0.00 47 1021.0
20260830221529 75 360 0.0 0.0 0.00 0.00 0.00 48 1021.0
20260830221029 75 360 0.0 0.0 0.00 0.00 0.00 46 1021.0
20260830220529 75 35 0.0 2.0 0.00 0.00 0.00 45 1021.0
20260830220028 75 360 0.0 0.0 0.00 0.00 0.00 48 1021.0
20260830215529 75 9 2.0 4.0 0.00 0.00 0.00 51 1021.0
20260830215029 75 360 0.0 0.0 0.00 0.00 0.00 53 1021.0
20260830214529 75 147 4.0 5.0 0.00 0.00 0.00 51 1021.0
20260830214029 76 119 3.0 4.0 0.00 0.00 0.00 51 1021.0
20260830213529 76 163 6.0 7.0 0.00 0.00 0.00 50 1021.0
20260830213029 76 155 6.0 8.0 0.00 0.00 0.00 52 1021.0
20260830212528 76 131 5.0 9.0 0.00 0.00 0.00 51 1021.0
20260830212029 77 212 6.0 13.0 0.00 0.00 0.00 51 1021.0
20260830211529 77 158 8.0 11.0 0.00 0.00 0.00 52 1021.0
20260830211029 77 148 4.0 8.0 0.00 0.00 0.00 54 1021.0
20260830210529 77 151 6.0 8.0 0.00 0.00 0.00 51 1021.0
20260830210029 77 110 5.0 8.0 0.00 0.00 0.00 55 1021.0
20260830205530 76 170 1.0 4.0 0.00 0.00 0.00 52 1021.0
20260830205029 76 151 11.0 15.0 0.00 0.00 0.00 51 1022.0
20260830204529 76 153 12.0 13.0 0.00 0.00 0.00 53 1022.0
20260830204029 76 162 5.0 9.0 0.00 0.00 0.00 55 1022.0
20260830203529 75 142 4.0 5.0 0.00 0.00 0.00 56 1022.0
20260830203029 75 152 13.0 17.0 0.00 0.00 0.00 55 1022.0
20260830202529 75 140 7.0 10.0 0.00 0.00 0.00 56 1022.0
20260830202029 75 158 10.0 16.0 0.00 0.00 0.00 56 1022.0
20260830201528 75 153 9.0 14.0 0.00 0.00 0.00 55 1022.0
20260830201029 75 144 10.0 13.0 0.00 0.00 0.00 57 1022.0
20260830200529 74 165 7.0 11.0 0.00 0.00 0.00 58 1022.0
20260830200029 74 173 6.0 11.0 0.00 0.00 0.00 59 1022.0
20260830195529 75 148 9.0 15.0 0.00 0.00 0.00 57 1022.0
20260830195029 75 152 2.0 6.0 0.00 0.00 0.00 57 1022.0
20260830194530 75 147 9.0 11.0 0.00 0.00 0.00 57 1022.0
20260830194029 75 137 6.0 10.0 0.00 0.00 0.00 57 1022.0
20260830193530 75 142 10.0 17.0 0.00 0.00 0.00 57 1022.0
20260830193029 75 153 6.0 10.0 0.00 0.00 0.00 56 1022.0
20260830192529 75 117 6.0 11.0 0.00 0.00 0.00 57 1022.0
20260830192030 74 192 3.0 6.0 0.00 0.00 0.00 58 1022.0
20260830191529 73 142 8.0 10.0 0.00 0.00 0.00 59 1022.0
20260830191029 73 149 8.0 11.0 0.00 0.00 0.00 58 1022.0
20260830190529 74 148 11.0 15.0 0.00 0.00 0.00 57 1022.0
20260830190030 73 128 9.0 12.0 0.00 0.00 0.00 58 1022.0
20260830185529 74 140 12.0 17.0 0.00 0.00 0.00 56 1022.0
20260830185029 74 148 14.0 19.0 0.00 0.00 0.00 51 1022.0
20260830184531 73 161 6.0 11.0 0.00 0.00 0.00 52 1022.0
20260830184030 73 149 8.0 12.0 0.00 0.00 0.00 53 1022.0
20260830183528 73 149 9.0 11.0 0.00 0.00 0.00 53 1022.0
20260830183029 74 160 6.0 7.0 0.00 0.00 0.00 52 1023.0
20260830182529 73 68 2.0 4.0 0.00 0.00 0.00 54 1022.0
20260830182029 72 71 1.0 4.0 0.00 0.00 0.00 54 1023.0
20260830181529 72 65 3.0 8.0 0.00 0.00 0.00 56 1023.0
20260830181028 72 129 4.0 10.0 0.00 0.00 0.00 55 1023.0
20260830180531 71 127 0.0 1.0 0.00 0.00 0.00 57 1022.0
20260830180029 71 27 4.0 9.0 0.00 0.00 0.00 57 1022.0
20260830175529 71 157 9.0 15.0 0.00 0.00 0.00 57 1022.0
20260830175029 71 164 5.0 8.0 0.00 0.00 0.00 58 1023.0
20260830174529 71 163 3.0 6.0 0.00 0.00 0.00 56 1023.0
20260830174029 70 337 2.0 4.0 0.00 0.00 0.00 58 1023.0
20260830173530 70 147 11.0 13.0 0.00 0.00 0.00 58 1022.0
20260830173030 70 148 13.0 17.0 0.00 0.00 0.00 58 1022.0
20260830172530 69 145 5.0 9.0 0.00 0.00 0.00 61 1022.0
20260830172029 69 152 9.0 14.0 0.00 0.00 0.00 62 1023.0
20260830171529 68 155 6.0 10.0 0.00 0.00 0.00 63 1023.0
20260830171030 68 152 10.0 13.0 0.00 0.00 0.00 61 1023.0
20260830170529 68 143 4.0 9.0 0.00 0.00 0.00 63 1023.0
20260830170029 68 148 9.0 13.0 0.00 0.00 0.00 62 1023.0
20260830165528 68 161 1.0 4.0 0.00 0.00 0.00 64 1023.0
20260830165029 68 194 2.0 5.0 0.00 0.00 0.00 64 1023.0
20260830164529 67 158 5.0 9.0 0.00 0.00 0.00 67 1023.0
20260830164029 66 337 4.0 6.0 0.00 0.00 0.00 68 1023.0
20260830163530 66 135 5.0 6.0 0.00 0.00 0.00 68 1022.0
20260830163030 66 161 7.0 9.0 0.00 0.00 0.00 69 1022.0
20260830162529 67 354 0.0 1.0 0.00 0.00 0.00 69 1022.0
20260830162029 67 339 6.0 6.0 0.00 0.00 0.00 67 1022.0
20260830161529 67 350 3.0 4.0 0.00 0.00 0.00 66 1022.0
20260830161029 66 141 3.0 4.0 0.00 0.00 0.00 68 1022.0
20260830160529 65 199 1.0 3.0 0.00 0.00 0.00 68 1022.0
20260830160029 65 334 5.0 7.0 0.00 0.00 0.00 70 1022.0
20260830155529 65 215 4.0 5.0 0.00 0.00 0.00 72 1022.0
20260830155029 65 203 4.0 4.0 0.00 0.00 0.00 72 1022.0
20260830154529 65 18 5.0 6.0 0.00 0.00 0.00 73 1022.0
20260830154030 65 316 4.0 6.0 0.00 0.00 0.00 76 1022.0
20260830153530 65 202 4.0 7.0 0.00 0.00 0.00 76 1022.0
20260830153030 65 204 6.0 6.0 0.00 0.00 0.00 74 1022.0
20260830152530 65 252 4.0 5.0 0.00 0.00 0.00 73 1022.0
20260830152029 65 311 4.0 6.0 0.00 0.00 0.00 72 1022.0
20260830151530 66 280 4.0 5.0 0.00 0.00 0.00 74 1022.0
20260830151030 66 253 3.0 4.0 0.00 0.00 0.00 72 1022.0
20260830150529 67 240 1.0 2.0 0.00 0.00 0.00 72 1022.0
20260830150029 66 208 3.0 4.0 0.00 0.00 0.00 73 1022.0
20260830145530 65 231 4.0 4.0 0.00 0.00 0.00 75 1022.0
20260830145029 65 213 5.0 7.0 0.00 0.00 0.00 75 1022.0
20260830144529 64 220 6.0 9.0 0.00 0.00 0.00 76 1022.0
20260830144029 63 228 5.0 6.0 0.00 0.00 0.00 77 1022.0
20260830143530 62 222 6.0 6.0 0.00 0.00 0.00 79 1022.0
20260830143029 62 223 5.0 6.0 0.00 0.00 0.00 84 1022.0
20260830142529 61 45 4.0 7.0 0.00 0.00 0.00 84 1022.0
20260830142029 61 232 5.0 6.0 0.00 0.00 0.00 84 1022.0
20260830141528 61 177 3.0 4.0 0.00 0.00 0.00 85 1022.0
20260830141029 60 185 5.0 6.0 0.00 0.00 0.00 87 1022.0
20260830140529 61 137 6.0 7.0 0.00 0.00 0.00 88 1022.0
20260830140029 61 192 4.0 5.0 0.00 0.00 0.00 88 1022.0
20260830135529 61 158 2.0 3.0 0.00 0.00 0.00 88 1022.0
20260830135029 61 235 0.0 0.0 0.00 0.00 0.00 86 1022.0
20260830134529 62 360 0.0 0.0 0.00 0.00 0.00 84 1022.0
20260830134029 62 223 1.0 3.0 0.00 0.00 0.00 82 1022.0
20260830133529 62 225 3.0 4.0 0.00 0.00 0.00 78 1022.0
20260830133029 62 226 2.0 6.0 0.00 0.00 0.00 75 1022.0
20260830132532 62 238 2.0 2.0 0.00 0.00 0.00 76 1021.0
20260830132029 62 232 3.0 4.0 0.00 0.00 0.00 76 1021.0
20260830131529 61 215 7.0 9.0 0.00 0.00 0.00 77 1021.0
20260830131028 61 222 4.0 5.0 0.00 0.00 0.00 81 1021.0
20260830130533 61 212 5.0 7.0 0.00 0.00 0.00 82 1021.0
20260830130029 61 189 9.0 9.0 0.00 0.00 0.00 83 1021.0
20260830125529 61 360 0.0 0.0 0.00 0.00 0.00 83 1021.0
20260830125029 61 303 1.0 3.0 0.00 0.00 0.00 82 1021.0
20260830124530 61 360 0.0 0.0 0.00 0.00 0.00 81 1021.0
20260830124029 61 240 0.0 1.0 0.00 0.00 0.00 81 1021.0
20260830123529 62 360 0.0 0.0 0.00 0.00 0.00 81 1021.0
20260830123029 62 242 1.0 2.0 0.00 0.00 0.00 79 1021.0
20260830122529 62 227 2.0 4.0 0.00 0.00 0.00 77 1021.0
20260830122029 62 222 8.0 9.0 0.00 0.00 0.00 77 1021.0
20260830121529 63 215 5.0 7.0 0.00 0.00 0.00 78 1021.0
20260830121029 63 208 9.0 10.0 0.00 0.00 0.00 76 1021.0
20260830120529 63 217 10.0 13.0 0.00 0.00 0.00 74 1021.0
20260830120029 63 214 12.0 14.0 0.00 0.00 0.00 73 1021.0
20260830115529 63 214 9.0 11.0 0.00 0.00 0.00 72 1021.0
20260830115029 63 238 4.0 8.0 0.00 0.00 0.00 71 1021.0
20260830114529 63 250 3.0 4.0 0.00 0.00 0.00 71 1021.0
20260830114029 63 287 5.0 8.0 0.00 0.00 0.00 73 1021.0
20260830113529 62 301 6.0 8.0 0.00 0.00 0.00 76 1021.0
20260830113029 61 318 6.0 8.0 0.00 0.00 0.00 80 1021.0
20260830112529 61 2 0.0 0.0 0.00 0.00 0.00 84 1021.0
20260830112029 61 360 0.0 0.0 0.00 0.00 0.00 84 1021.0
20260830111529 61 8 2.0 3.0 0.00 0.00 0.00 84 1021.0
20260830111029 61 15 3.0 3.0 0.00 0.00 0.00 84 1021.0
20260830110530 61 360 0.0 0.0 0.00 0.00 0.00 85 1021.0
20260830110030 61 360 0.0 0.0 0.00 0.00 0.00 86 1021.0
20260830105529 61 360 0.0 0.0 0.00 0.00 0.00 86 1021.0
20260830105030 61 17 3.0 3.0 0.00 0.00 0.00 86 1021.0
20260830104529 61 360 0.0 0.0 0.00 0.00 0.00 83 1021.0
20260830104030 61 360 0.0 0.0 0.00 0.00 0.00 85 1021.0
20260830103529 61 356 4.0 5.0 0.00 0.00 0.00 86 1021.0
20260830103030 61 360 0.0 0.0 0.00 0.00 0.00 85 1021.0
20260830102530 61 360 0.0 0.0 0.00 0.00 0.00 86 1021.0
20260830102029 61 18 0.0 2.0 0.00 0.00 0.00 86 1021.0
20260830101529 60 21 7.0 11.0 0.00 0.00 0.00 86 1021.0
20260830101029 60 33 4.0 5.0 0.00 0.00 0.00 85 1021.0
20260830100529 61 25 2.0 2.0 0.00 0.00 0.00 84 1021.0
20260830100031 61 16 3.0 4.0 0.00 0.00 0.00 82 1021.0
20260830095530 62 20 2.0 3.0 0.00 0.00 0.00 81 1021.0
20260830095029 62 190 4.0 5.0 0.00 0.00 0.00 77 1021.0
20260830094529 62 268 2.0 4.0 0.00 0.00 0.00 76 1021.0
20260830094029 62 189 4.0 5.0 0.00 0.00 0.00 74 1021.0
20260830093529 62 35 3.0 4.0 0.00 0.00 0.00 77 1021.0
20260830093029 61 37 2.0 5.0 0.00 0.00 0.00 80 1021.0
20260830092529 61 15 5.0 6.0 0.00 0.00 0.00 83 1021.0
20260830092029 61 13 3.0 4.0 0.00 0.00 0.00 85 1021.0
20260830091530 61 33 0.0 0.0 0.00 0.00 0.00 84 1021.0
20260830091029 61 58 4.0 4.0 0.00 0.00 0.00 83 1021.0
20260830090529 61 107 4.0 4.0 0.00 0.00 0.00 84 1021.0
20260830090029 61 19 3.0 3.0 0.00 0.00 0.00 87 1021.0
20260830085529 61 68 2.0 4.0 0.00 0.00 0.00 86 1021.0
20260830085029 62 159 2.0 3.0 0.00 0.00 0.00 87 1021.0
20260830084529 62 190 6.0 6.0 0.00 0.00 0.00 86 1022.0